Location: Aldenham
(51.6667°N, 0.3500°W)
Time: 18:17:57
(UTC+00:00)

Injun/Solrad 3 - All Passes

Search period start: 16 February 2026 00:00
Search period end: 26 February 2026 00:00
Orbit: 873 x 983 km, 66.8° (Epoch: 16 February)

Date Brightness Start Highest point End Pass type
(mag) Time Alt. Az. Time Alt. Az. Time Alt. Az.
16 Feb - 10:43:58 10° SSE 10:48:29 24° ESE 10:53:05 10° ENE daylight
16 Feb - 12:28:29 10° SW 12:34:20 79° NW 12:40:22 10° NE daylight
16 Feb - 14:16:44 10° W 14:21:45 28° NNW 14:26:52 10° NNE daylight
16 Feb - 16:06:05 10° NW 16:10:16 19° N 16:14:32 10° NE daylight
16 Feb - 17:53:35 10° NNW 17:58:47 28° NNE 18:04:05 10° E visible
16 Feb - 19:40:02 10° NW 19:46:11 79° NE 19:52:29 10° SE visible
16 Feb - 21:27:12 10° NW 21:32:08 26° WSW 21:37:08 10° SSW visible
17 Feb - 10:54:03 10° S 10:59:14 34° ESE 11:04:32 10° NE daylight
17 Feb - 12:39:40 10° SW 12:45:28 59° NW 12:51:24 10° NE daylight
17 Feb - 14:28:28 10° WNW 14:33:11 24° NNW 14:38:01 10° NNE daylight
17 Feb - 16:17:33 10° NW 16:21:51 20° N 16:26:11 10° NE daylight
17 Feb - 18:04:39 10° NNW 18:10:10 34° NNE 18:15:48 10° E visible
17 Feb - 19:51:05 10° NW 19:57:14 78° SW 20:03:31 10° SSE visible
17 Feb - 21:38:54 10° WNW 21:42:50 18° WSW 21:46:50 10° SW visible
18 Feb - 11:04:30 10° S 11:10:05 49° ESE 11:15:48 10° NE daylight
18 Feb - 12:51:02 10° WSW 12:56:40 45° NW 13:02:26 10° NNE daylight
18 Feb - 14:40:13 10° WNW 14:44:41 21° NNW 14:49:15 10° NE daylight
18 Feb - 16:28:54 10° NW 16:33:23 21° NNE 16:37:57 10° ENE daylight
18 Feb - 18:15:41 10° NNW 18:21:28 43° NE 18:27:24 10° ESE visible
18 Feb - 20:02:12 10° NW 20:08:12 57° WSW 20:14:21 10° SSE visible
18 Feb - 21:51:28 10° W 21:53:28 12° W 21:55:28 10° WSW visible
19 Feb - 09:32:45 10° SE 09:35:38 14° ESE 09:38:33 10° ENE daylight
19 Feb - 11:15:13 10° SSW 11:21:00 69° ESE 11:26:58 10° NE daylight
19 Feb - 13:02:33 10° W 13:07:57 36° NW 13:13:29 10° NNE daylight
19 Feb - 14:51:56 10° NW 14:56:14 20° N 15:00:36 10° NE daylight
19 Feb - 16:40:07 10° NNW 16:44:54 23° NNE 16:49:46 10° ENE daylight
19 Feb - 18:26:42 10° NW 18:32:43 55° NE 18:38:51 10° ESE visible
19 Feb - 20:13:24 10° NW 20:19:06 40° WSW 20:24:55 10° S visible
20 Feb - 09:42:03 10° SSE 09:46:17 21° ESE 09:50:35 10° ENE daylight
20 Feb - 11:26:09 10° SW 11:32:01 87° NW 11:38:03 10° NE daylight
20 Feb - 13:14:11 10° W 13:19:19 29° NNW 13:24:34 10° NNE daylight
20 Feb - 15:03:35 10° NW 15:07:48 19° N 15:12:04 10° NE daylight
20 Feb - 16:51:15 10° NNW 16:56:21 27° NNE 17:01:34 10° E daylight
20 Feb - 18:37:43 10° NW 18:43:52 72° NE 18:50:09 10° SE visible
20 Feb - 20:24:45 10° NW 20:29:55 29° WSW 20:35:12 10° SSW visible
21 Feb - 09:52:00 10° S 09:57:01 30° ESE 10:02:07 10° NE daylight
21 Feb - 11:37:17 10° SW 11:43:06 65° NW 11:49:07 10° NE daylight
21 Feb - 13:25:55 10° WNW 13:30:44 25° NNW 13:35:41 10° NNE daylight
21 Feb - 15:15:06 10° NW 15:19:21 19° N 15:23:42 10° NE daylight
21 Feb - 17:02:20 10° NNW 17:07:46 32° NNE 17:13:18 10° E daylight
21 Feb - 18:48:46 10° NW 18:54:56 85° SW 19:01:16 10° SSE visible
21 Feb - 20:36:19 10° WNW 20:40:39 20° WSW 20:45:04 10° SSW visible
22 Feb - 10:02:21 10° S 10:07:50 43° ESE 10:13:26 10° NE daylight
22 Feb - 11:48:36 10° WSW 11:54:17 49° NW 12:00:09 10° NNE daylight
22 Feb - 13:37:40 10° WNW 13:42:14 22° NNW 13:46:53 10° NE daylight
22 Feb - 15:26:29 10° NW 15:30:55 20° N 15:35:26 10° ENE daylight
22 Feb - 17:13:22 10° NNW 17:19:05 40° NE 17:24:57 10° ESE daylight
22 Feb - 18:59:52 10° NW 19:05:56 63° WSW 19:12:09 10° SSE visible
22 Feb - 20:48:27 10° WNW 20:51:19 14° WSW 20:54:12 10° SW visible
23 Feb - 08:31:18 10° ESE 08:33:28 12° E 08:35:40 10° ENE daylight
23 Feb - 10:12:58 10° SSW 10:18:43 62° ESE 10:24:37 10° NE daylight
23 Feb - 12:00:04 10° WSW 12:05:33 39° NW 12:11:11 10° NNE daylight
23 Feb - 13:49:24 10° WNW 13:53:45 20° N 13:58:11 10° NE daylight
23 Feb - 15:37:45 10° NNW 15:42:27 23° NNE 15:47:14 10° ENE daylight
23 Feb - 17:24:23 10° NW 17:30:21 51° NE 17:36:27 10° ESE daylight
23 Feb - 19:11:02 10° NW 19:16:52 45° WSW 19:22:49 10° S visible
24 Feb - 08:40:12 10° SSE 08:44:05 19° ESE 08:48:02 10° ENE daylight
24 Feb - 10:23:50 10° SSW 10:29:42 85° SE 10:35:44 10° NE daylight
24 Feb - 12:11:40 10° W 12:16:53 31° NNW 12:22:14 10° NNE daylight
24 Feb - 14:01:04 10° NW 14:05:19 19° N 14:09:38 10° NE daylight
24 Feb - 15:48:54 10° NNW 15:53:55 26° NNE 15:59:02 10° ENE daylight
24 Feb - 17:35:24 10° NW 17:41:32 66° NE 17:47:48 10° SE daylight
24 Feb - 19:22:19 10° NW 19:27:42 32° WSW 19:33:11 10° S visible
25 Feb - 08:49:59 10° SSE 08:54:48 27° ESE 08:59:41 10° NE daylight
25 Feb - 10:34:55 10° SW 10:40:47 72° NW 10:46:48 10° NE daylight
25 Feb - 12:23:21 10° W 12:28:17 26° NNW 12:33:21 10° NNE daylight
25 Feb - 14:12:38 10° NW 14:16:53 19° N 14:21:12 10° NE daylight
25 Feb - 16:00:00 10° NNW 16:05:21 30° NNE 16:10:48 10° E daylight
25 Feb - 17:46:27 10° NW 17:52:38 87° NE 17:58:58 10° SE daylight
25 Feb - 19:33:47 10° WNW 19:38:28 23° WSW 19:43:13 10° SSW visible
